Date String (YYYY-MM-DD hh:mm:ss) UTC,Instrument flags,Ambient pressure (hPa),Sample flow (lpm),Bypass flow (lpm),Sample temperature (°C),Ambient temperature (°C),ASC tube jacket temperature (°C),LED temperature (°C),Box temperature (°C),Sample RH (%),Span deviation,Mass concentration (μg/m³),Mass concentration (μg/m³),Mass concentration (μg/m³)
DateTimeUTC,F1_M11,P_M11,Q1_M11,Q2_M11,T1_M11,T2_M11,T3_M11,T4_M11,T5_M11,U1_M11,ZSPAN_M11,X0_M11,X2_M11,X1_M11
2023-04-07 07:00:00,,0834.5,5.00,0.00,22.1,20.2,00.0,30.6,23.5,10.2,0000.0,0008.06,0003.45,0002.83
2023-04-07 07:01:00,,0834.8,5.01,0.00,22.1,20.2,00.0,30.6,23.5,09.9,0000.0,0008.17,0003.46,0002.80
2023-04-07 07:02:00,,0834.8,5.00,0.00,22.2,21.2,00.0,30.5,23.9,10.1,0000.0,0008.34,0003.50,0002.79
2023-04-07 07:03:00,,0835.0,4.99,0.00,22.3,22.4,00.0,30.5,24.3,09.5,0000.0,0008.11,0003.50,0002.77
2023-04-07 07:04:00,,0834.8,5.00,0.00,22.4,22.9,00.0,30.5,24.4,09.3,0000.0,0007.76,0003.51,0002.76
2023-04-07 07:05:00,,0834.9,5.00,0.00,22.5,22.7,00.0,30.6,24.3,09.1,0000.0,0008.15,0003.54,0002.77
2023-04-07 07:06:00,,0835.0,4.99,0.00,22.5,22.4,00.0,30.7,24.2,08.9,0000.0,0008.15,0003.54,0002.79
2023-04-07 07:07:00,,0834.9,4.99,0.00,22.4,22.1,00.0,30.7,24.1,08.9,0000.0,0008.37,0003.57,0002.80
2023-04-07 07:08:00,,0834.9,5.01,0.00,22.4,21.8,00.0,30.7,24.0,09.0,0000.0,0008.51,0003.60,0002.81
2023-04-07 07:09:00,,0834.8,5.01,0.00,22.4,21.5,00.0,30.7,24.0,09.1,0000.0,0007.98,0003.64,0002.82
2023-04-07 07:10:00,,0834.6,5.00,0.00,22.4,21.4,00.0,30.7,24.0,09.2,0000.0,0007.82,0003.66,0002.83
2023-04-07 07:11:00,,0834.6,4.99,0.00,22.4,21.2,00.0,30.7,24.0,09.2,0000.0,0008.11,0003.67,0002.83
2023-04-07 07:12:00,,0834.7,5.00,0.00,22.4,21.1,00.0,30.7,23.9,09.2,0000.0,0008.95,0003.67,0002.82
2023-04-07 07:13:00,,0834.6,5.00,0.00,22.4,21.1,00.0,30.7,23.9,09.1,0000.0,0009.44,0003.68,0002.82
2023-04-07 07:14:00,,0834.6,4.99,0.00,22.4,21.1,00.0,30.7,23.9,09.0,0000.0,0009.87,0003.72,0002.81
2023-04-07 07:15:00,,0834.8,5.00,0.00,22.4,21.0,00.0,30.7,24.0,08.9,0000.0,0010.85,0003.69,0002.79
2023-04-07 07:16:00,,0834.8,5.00,0.00,22.4,21.0,00.0,30.7,24.0,09.0,0000.0,0011.20,0003.65,0002.76
2023-04-07 07:17:00,,0834.6,5.00,0.00,22.4,21.0,00.0,30.7,23.9,09.0,0000.0,0011.33,0003.68,0002.74
2023-04-07 07:18:00,,0834.7,5.00,0.00,22.4,20.9,00.0,30.7,23.9,09.0,0000.0,0011.44,0003.74,0002.70
2023-04-07 07:19:00,,0834.6,5.00,0.00,22.4,20.9,00.0,30.7,23.9,09.0,0000.0,0011.43,0003.72,0002.68
2023-04-07 07:20:00,,0834.6,4.99,0.00,22.4,20.9,00.0,30.7,23.9,09.0,0000.0,0011.54,0003.70,0002.65
2023-04-07 07:21:00,,0834.8,4.99,0.00,22.4,20.9,00.0,30.7,23.9,09.0,0000.0,0011.68,0003.71,0002.64
2023-04-07 07:22:00,,0835.0,5.01,0.00,22.4,20.8,00.0,30.7,23.9,09.0,0000.0,0011.67,0003.71,0002.63
2023-04-07 07:23:00,,0834.9,5.01,0.00,22.4,20.8,00.0,30.7,23.9,09.0,0000.0,0011.01,0003.73,0002.62
2023-04-07 07:24:00,,0835.1,4.99,0.00,22.4,20.8,00.0,30.7,23.9,09.1,0000.0,0010.66,0003.76,0002.63
2023-04-07 07:25:00,,0835.0,5.00,0.00,22.4,21.2,00.0,30.7,24.1,09.0,0000.0,0010.80,0003.76,0002.65
2023-04-07 07:26:00,,0834.7,5.01,0.00,22.5,22.2,00.0,30.7,24.5,08.7,0000.0,0011.26,0003.80,0002.66
2023-04-07 07:27:00,,0834.7,5.00,0.00,22.7,23.1,00.0,30.7,24.7,08.6,0000.0,0010.31,0003.79,0002.63
2023-04-07 07:28:00,,0834.6,4.99,0.00,22.7,23.1,00.0,30.8,24.6,08.7,0000.0,0010.73,0003.81,0002.63
2023-04-07 07:29:00,,0834.7,4.99,0.00,22.8,22.9,00.0,30.8,24.5,08.9,0000.0,0011.06,0003.76,0002.63
2023-04-07 07:30:00,,0835.1,5.00,0.00,22.7,22.6,00.0,30.9,24.4,08.9,0000.0,0011.23,0003.79,0002.62
2023-04-07 07:31:00,,0835.1,5.00,0.00,22.7,22.3,00.0,30.9,24.3,09.0,0000.0,0011.16,0003.79,0002.60
2023-04-07 07:32:00,,0835.1,5.00,0.00,22.7,22.0,00.0,30.9,24.3,08.8,0000.0,0011.42,0003.77,0002.57
2023-04-07 07:33:00,,0835.1,5.00,0.00,22.7,21.7,00.0,30.9,24.2,08.7,0000.0,0011.62,0003.77,0002.56
2023-04-07 07:34:00,,0835.0,4.99,0.00,22.7,21.4,00.0,30.9,24.2,08.6,0000.0,0012.19,0003.74,0002.57
2023-04-07 07:35:00,,0835.1,5.00,0.00,22.6,21.2,00.0,30.9,24.1,08.6,0000.0,0011.97,0003.71,0002.56
2023-04-07 07:36:00,,0834.8,5.00,0.00,22.6,21.1,00.0,30.9,24.1,08.5,0000.0,0011.33,0003.67,0002.54
2023-04-07 07:37:00,,0835.0,5.00,0.00,22.6,21.0,00.0,30.9,24.1,08.4,0000.0,0010.03,0003.63,0002.52
2023-04-07 07:38:00,,0835.1,5.01,0.00,22.6,20.9,00.0,30.9,24.0,08.2,0000.0,0010.11,0003.67,0002.54
2023-04-07 07:39:00,,0835.1,4.98,0.00,22.5,20.9,00.0,30.9,24.0,08.2,0000.0,0010.10,0003.66,0002.55
2023-04-07 07:40:00,,0835.2,5.00,0.00,22.5,20.8,00.0,30.9,24.0,08.1,0000.0,0009.95,0003.65,0002.55
2023-04-07 07:41:00,,0835.0,5.01,0.00,22.5,20.8,00.0,30.9,24.0,08.1,0000.0,0009.69,0003.62,0002.56
2023-04-07 07:42:00,,0835.0,5.01,0.00,22.5,20.8,00.0,30.9,24.0,08.0,0000.0,0009.52,0003.59,0002.58
2023-04-07 07:43:00,,0834.9,4.99,0.00,22.5,20.8,00.0,30.9,24.0,08.0,0000.0,0009.14,0003.58,0002.60
2023-04-07 07:44:00,,0835.1,4.99,0.00,22.5,20.8,00.0,30.9,24.0,08.0,0000.0,0008.69,0003.58,0002.61
2023-04-07 07:45:00,,0835.0,5.01,0.00,22.5,20.8,00.0,30.8,23.9,08.0,0000.0,0007.99,0003.60,0002.60
2023-04-07 07:46:00,,0834.9,5.01,0.00,22.5,20.9,00.0,30.8,24.0,08.0,0000.0,0008.62,0003.57,0002.57
2023-04-07 07:47:00,,0834.7,4.99,0.00,22.5,20.9,00.0,30.8,24.0,08.1,0000.0,0008.83,0003.61,0002.57
2023-04-07 07:48:00,,0834.6,4.99,0.00,22.4,20.9,00.0,30.8,24.0,08.1,0000.0,0008.84,0003.61,0002.58
2023-04-07 07:49:00,,0834.7,5.00,0.00,22.4,20.9,00.0,30.8,24.0,08.1,0000.0,0008.89,0003.59,0002.57
2023-04-07 07:50:00,,0834.6,5.02,0.00,22.4,20.9,00.0,30.8,24.0,08.1,0000.0,0009.18,0003.57,0002.56
2023-04-07 07:51:00,,0834.6,5.00,0.00,22.5,21.2,00.0,30.8,24.1,08.1,0000.0,0008.71,0003.52,0002.56
2023-04-07 07:52:00,,0835.0,5.00,0.00,22.6,22.1,00.0,30.7,24.5,08.1,0000.0,0008.75,0003.52,0002.55
2023-04-07 07:53:00,,0835.0,5.00,0.00,22.7,23.1,00.0,30.7,24.8,08.1,0000.0,0008.78,0003.52,0002.54
2023-04-07 07:54:00,,0835.1,4.98,0.00,22.8,23.2,00.0,30.8,24.7,08.1,0000.0,0008.81,0003.52,0002.53
2023-04-07 07:55:00,,0835.0,5.00,0.00,22.8,22.9,00.0,30.9,24.6,08.1,0000.0,0008.68,0003.49,0002.53
2023-04-07 07:56:00,,0835.2,5.00,0.00,22.8,22.5,00.0,30.9,24.4,08.2,0000.0,0008.54,0003.48,0002.54
2023-04-07 07:57:00,,0835.0,5.01,0.00,22.8,22.2,00.0,31.0,24.4,08.2,0000.0,0007.98,0003.52,0002.57
2023-04-07 07:58:00,,0834.8,5.00,0.00,22.8,21.9,00.0,31.0,24.3,08.2,0000.0,0007.83,0003.49,0002.59
2023-04-07 07:59:00,,0834.5,5.00,0.00,22.7,21.6,00.0,31.0,24.2,08.2,0000.0,0008.18,0003.49,0002.59
